This is the latest recevied weather packets stored in our database for station/object vk4zu-13. If no packets are shown the sender has not sent any weather packets the latest 10 day(s).
| Time | Temp. | Humidity | Pressure | Rain* | Wind** | Luminosity | Snow |
|---|---|---|---|---|---|---|---|
| 1777933769 | 20.56° C | 91% | 1018.3 hPa | 0 mm | - | 362 W/m² | - |
| 1777933699 | 20° C | 90% | 1018.3 hPa | 0 mm | - | 359 W/m² | - |
| 1777933629 | 20.56° C | 91% | 1018.2 hPa | 0 mm | - | 355 W/m² | - |
| 1777933566 | 20° C | 91% | 1018.2 hPa | 0 mm | - | 352 W/m² | - |
| 1777933505 | 20° C | 91% | 1018.3 hPa | 0 mm | - | 350 W/m² | - |
| 1777933442 | 20° C | 92% | 1018.3 hPa | 0 mm | - | 343 W/m² | - |
| 1777933381 | 20° C | 92% | 1018.2 hPa | 0 mm | - | 339 W/m² | - |
| 1777933322 | 20° C | 91% | 1018.3 hPa | 0 mm | - | 336 W/m² | - |
| 1777933291 | 20° C | 91% | 1018.2 hPa | 0 mm | - | 334 W/m² | - |
| 1777933194 | 20° C | 92% | 1018.3 hPa | 0 mm | - | 330 W/m² | - |
| 1777933134 | 20° C | 92% | 1018.3 hPa | 0 mm | - | 327 W/m² | - |
| 1777933073 | 20° C | 92% | 1018.4 hPa | 0 mm | - | 320 W/m² | - |
| 1777933010 | 20° C | 93% | 1018.2 hPa | 0 mm | - | 318 W/m² | - |
| 1777932886 | 19.44° C | 92% | 1018.3 hPa | 0 mm | - | 311 W/m² | - |
| 1777932824 | 19.44° C | 92% | 1018.3 hPa | 0 mm | - | 304 W/m² | - |
| 1777932762 | 19.44° C | 93% | 1018.3 hPa | 0 mm | - | 301 W/m² | - |
| 1777932697 | 19.44° C | 93% | 1018.2 hPa | 0 mm | - | 297 W/m² | - |
| 1777932636 | 18.89° C | 92% | 1018.2 hPa | 0 mm | - | 294 W/m² | - |
| 1777932578 | 18.89° C | 92% | 1018.2 hPa | 0 mm | - | 276 W/m² | - |
| 1777932509 | 18.89° C | 93% | 1018.2 hPa | 0 mm | - | 276 W/m² | - |
| 1777932446 | 18.89° C | 93% | 1018.2 hPa | 0 mm | - | 269 W/m² | - |
| 1777932384 | 18.89° C | 93% | 1018.1 hPa | 0 mm | - | 262 W/m² | - |
| 1777932323 | 18.89° C | 93% | 1018.1 hPa | 0 mm | - | 258 W/m² | - |
| 1777932244 | 19.44° C | 94% | 1018.2 hPa | 0 mm | - | 257 W/m² | - |
| 1777932174 | 18.89° C | 93% | 1018.1 hPa | 0 mm | - | 251 W/m² | - |
* Rain latest hour (hover to see other rain measurements)
** Current wind speed in m/s (hover to see current wind gust speed)